Pittsburg, KS

5:03 PM CST on December 14, 2017 (GMT -0600)
Atkinson Municipal

Weather History for KPTS - February, 2014

Change the Weather History Date:

Sunday, February 9, 2014

  Actual Average (KJLN) Record (KJLN)
Temperature  
Mean Temperature 24 °F -  
Max Temperature 30 °F 44 °F 73 °F (2000)
Min Temperature 19 °F 23 °F -12 °F (1979)
Degree Days  
Heating Degree Days 40    
Moisture  
Dew Point 24 °F    
Average Humidity 86    
Maximum Humidity 100    
Minimum Humidity 69    
Precipitation  
Precipitation 0.00 in - - ()
Sea Level Pressure  
Sea Level Pressure 30.22 in    
Wind  
Wind Speed 6 mph (NE)    
Max Wind Speed 15 mph    
Max Gust Speed 21 mph    
Visibility 6 miles    
Events      
Averages and records for this station are not official NWS values.
T = Trace of Precipitation, MM = Missing Value Source: NWS Daily Summary

Daily Weather History Graph

Daily Weather History Graph

Search for Another Location

Airport or City:

Trip Planner

Search our weather history database for the weather conditions in past years. The results will help you decide how hot, cold, wet, or windy it might be!

Date:

Astronomy

Feb. 09, 2014 Rise Set
Actual Time 7:14 AM CST 5:52 PM CST
Civil Twilight 6:47 AM CST 6:19 PM CST
Nautical Twilight 6:16 AM CST 6:49 PM CST
Astronomical Twilight 5:46 AM CST 7:20 PM CST
Moon 1:34 PM CST (2/9) 3:18 AM CST (2/9)
Length of Visible Light 11h 31m
Length of Day
10h 37m
Waxing Gibbous, 77% of the Moon is Illuminated
Feb 9
Waxing Gibbous
Feb 14
Full
Feb 22
Last Quarter
Mar 1
New
Mar 8
First Quarter

Hourly Weather History & Observations

Time (CST) Temp. Windchill Dew Point Humidity Pressure Visibility Wind Dir Wind Speed Gust Speed Precip Events Conditions
12:15 AM 30.7 °F - 30.9 °F 100% 30.13 in 2.5 mi Calm Calm - N/A   Unknown
12:35 AM 30.7 °F - - N/A% 30.13 in 2.0 mi Calm Calm - N/A   Unknown
12:55 AM 30.7 °F - - N/A% 30.14 in 2.5 mi Calm Calm - N/A   Unknown
1:15 AM 30.7 °F - - N/A% 30.14 in 2.5 mi Calm Calm - N/A   Unknown
1:35 AM 30.7 °F - - N/A% 30.15 in 3.0 mi Calm Calm - N/A   Unknown
1:55 AM 30.7 °F - - N/A% 30.14 in 2.5 mi Calm Calm - N/A   Unknown
2:15 AM 30.7 °F 27.3 °F - N/A% 30.15 in 3.0 mi North 3.5 mph - N/A   Unknown
2:35 AM 30.7 °F 27.3 °F 30.9 °F 100% 30.16 in 3.0 mi NNW 3.5 mph - N/A   Unknown
2:55 AM 30.7 °F 26.0 °F 30.9 °F 100% 30.16 in 3.0 mi North 4.6 mph - N/A   Unknown
3:15 AM 30.7 °F 23.3 °F 30.9 °F 100% 30.18 in 4.0 mi North 8.1 mph - N/A   Unknown
3:35 AM 30.7 °F 24.9 °F 30.9 °F 100% 30.16 in 4.0 mi NNE 5.8 mph - N/A   Unknown
3:55 AM 30.7 °F 24.9 °F 30.9 °F 100% 30.15 in 4.0 mi North 5.8 mph - N/A   Unknown
4:15 AM 30.7 °F 27.3 °F 30.9 °F 100% 30.15 in 5.0 mi NNE 3.5 mph - N/A   Unknown
4:35 AM 30.7 °F 24.1 °F 30.9 °F 100% 30.16 in 5.0 mi NE 6.9 mph - N/A   Unknown
4:55 AM 30.7 °F 26.0 °F 30.9 °F 100% 30.16 in 5.0 mi NNE 4.6 mph - N/A   Unknown
5:15 AM 30.7 °F 24.9 °F 30.9 °F 100% 30.16 in 5.0 mi NNE 5.8 mph - N/A   Unknown
5:35 AM 30.7 °F 23.3 °F 30.9 °F 100% 30.14 in 5.0 mi NE 8.1 mph - N/A   Unknown
5:55 AM 30.7 °F 23.3 °F 30.9 °F 100% 30.15 in 5.0 mi NE 8.1 mph - N/A   Unknown
6:15 AM 30.7 °F 23.3 °F 30.9 °F 100% 30.16 in 5.0 mi NNE 8.1 mph - N/A   Unknown
6:35 AM 30.7 °F 24.1 °F 30.9 °F 100% 30.17 in 5.0 mi NE 6.9 mph - N/A   Unknown
6:55 AM 30.7 °F 22.0 °F 30.9 °F 100% 30.17 in 5.0 mi NE 10.4 mph - N/A   Unknown
7:15 AM 30.7 °F 24.9 °F 30.9 °F 100% 30.17 in 4.0 mi ENE 5.8 mph - N/A   Unknown
7:35 AM 30.7 °F 22.0 °F 30.9 °F 100% 30.17 in 4.0 mi ENE 10.4 mph - N/A   Unknown
7:55 AM 30.7 °F 22.0 °F 30.9 °F 100% 30.18 in 4.0 mi NE 10.4 mph 16.1 mph N/A   Unknown
8:15 AM 30.7 °F 22.6 °F 30.9 °F 100% 30.18 in 4.0 mi ENE 9.2 mph - N/A   Unknown
8:35 AM 30.7 °F 23.3 °F 30.9 °F 100% 30.19 in 3.0 mi ENE 8.1 mph - N/A   Unknown
8:55 AM 30.7 °F 24.1 °F 30.9 °F 100% 30.19 in 4.0 mi ENE 6.9 mph - N/A   Unknown
9:15 AM 30.7 °F 24.9 °F 29.8 °F 96% 30.19 in 5.0 mi NE 5.8 mph - N/A   Unknown
9:35 AM 30.7 °F 24.1 °F 29.3 °F 94% 30.18 in 5.0 mi ENE 6.9 mph - N/A   Unknown
9:55 AM 30.7 °F 22.6 °F 28.8 °F 92% 30.19 in 5.0 mi NE 9.2 mph - N/A   Unknown
10:15 AM 30.7 °F 22.6 °F 28.4 °F 91% 30.19 in 5.0 mi ENE 9.2 mph - N/A   Unknown
10:35 AM 30.7 °F 22.6 °F 28.4 °F 91% 30.22 in 5.0 mi NE 9.2 mph - N/A   Unknown
10:55 AM 30.7 °F 22.6 °F 28.0 °F 90% 30.22 in 5.0 mi NE 9.2 mph - N/A   Unknown
11:15 AM 30.7 °F 26.0 °F 27.0 °F 86% 30.25 in 7.0 mi NE 4.6 mph - N/A   Unknown
11:35 AM 30.7 °F 22.6 °F 26.8 °F 85% 30.25 in 5.0 mi NNE 9.2 mph - N/A   Unknown
11:55 AM 30.7 °F 22.6 °F 26.8 °F 85% 30.20 in 5.0 mi NE 9.2 mph - N/A   Unknown
12:15 PM 30.7 °F 24.9 °F 26.6 °F 85% 30.22 in 5.0 mi NE 5.8 mph - N/A   Unknown
12:35 PM 30.7 °F 26.0 °F 26.4 °F 84% 30.23 in 5.0 mi NE 4.6 mph - N/A   Unknown
12:55 PM 30.7 °F 22.6 °F 26.1 °F 83% 30.22 in 7.0 mi NE 9.2 mph - N/A   Unknown
1:15 PM 30.7 °F 22.6 °F 25.2 °F 80% 30.21 in 7.0 mi NE 9.2 mph - N/A   Unknown
1:35 PM 30.7 °F 23.3 °F 25.0 °F 79% 30.20 in 7.0 mi NNE 8.1 mph - N/A   Unknown
1:55 PM 30.7 °F 22.0 °F 25.3 °F 80% 30.20 in 5.0 mi NE 10.4 mph - N/A   Unknown
2:15 PM 30.7 °F 20.9 °F 25.3 °F 80% 30.19 in 5.0 mi NNE 12.7 mph - N/A   Unknown
2:35 PM 30.7 °F 20.4 °F 24.4 °F 77% 30.20 in 7.0 mi NNE 13.8 mph 18.4 mph N/A   Unknown
2:55 PM 30.7 °F 21.4 °F 23.7 °F 75% 30.21 in 7.0 mi NNE 11.5 mph 17.3 mph N/A   Unknown
3:15 PM 30.7 °F 20.0 °F 22.3 °F 71% 30.20 in 7.0 mi NNE 15.0 mph - N/A   Unknown
3:35 PM 30.7 °F 20.9 °F 21.7 °F 69% 30.21 in 10.0 mi NE 12.7 mph 17.3 mph N/A   Unknown
3:55 PM 30.7 °F 20.9 °F 21.6 °F 69% 30.22 in 7.0 mi NNE 12.7 mph 20.7 mph N/A   Unknown
4:15 PM 30.6 °F 20.2 °F 21.7 °F 70% 30.22 in 7.0 mi NE 13.8 mph 18.4 mph N/A   Unknown
4:35 PM 28.8 °F 18.4 °F 20.3 °F 71% 30.22 in 10.0 mi NNE 12.7 mph 20.7 mph N/A   Unknown
4:55 PM 28.0 °F 16.5 °F 19.9 °F 72% 30.24 in 7.0 mi NNE 15.0 mph 20.7 mph N/A   Unknown
5:15 PM 26.1 °F 16.8 °F 18.3 °F 73% 30.24 in 7.0 mi ENE 9.2 mph - N/A   Unknown
5:35 PM 25.7 °F 14.6 °F 18.1 °F 73% 30.24 in 10.0 mi NE 12.7 mph 19.6 mph N/A   Unknown
5:55 PM 25.0 °F 14.2 °F 17.8 °F 74% 30.26 in 10.0 mi NE 11.5 mph - N/A   Unknown
6:15 PM 23.5 °F 11.8 °F 17.1 °F 76% 30.27 in 10.0 mi NE 12.7 mph 18.4 mph N/A   Unknown
6:35 PM 23.0 °F 11.7 °F 16.7 °F 77% 30.27 in 10.0 mi ENE 11.5 mph - N/A   Unknown
6:55 PM 22.8 °F 12.2 °F 16.5 °F 77% 30.29 in 10.0 mi NE 10.4 mph - N/A   Unknown
7:15 PM 22.1 °F 12.0 °F 15.8 °F 77% 30.28 in 10.0 mi NE 9.2 mph 16.1 mph N/A   Unknown
7:35 PM 21.9 °F 11.0 °F 15.8 °F 77% 30.28 in 10.0 mi NE 10.4 mph 16.1 mph N/A   Unknown
7:55 PM 21.9 °F 11.7 °F 15.8 °F 77% 30.29 in 10.0 mi NE 9.2 mph - N/A   Unknown
8:15 PM 21.9 °F 10.4 °F 16.0 °F 78% 30.29 in 10.0 mi NE 11.5 mph - N/A   Unknown
8:35 PM 21.6 °F 10.6 °F 15.8 °F 78% 30.29 in 10.0 mi NE 10.4 mph - N/A   Unknown
8:55 PM 20.8 °F 8.4 °F 15.1 °F 78% 30.30 in 10.0 mi NE 12.7 mph 17.3 mph N/A   Unknown
9:15 PM 20.7 °F 8.8 °F 14.7 °F 78% 30.31 in 10.0 mi NE 11.5 mph - N/A   Unknown
9:35 PM 20.7 °F 8.8 °F 14.2 °F 76% 30.33 in 10.0 mi NE 11.5 mph 18.4 mph N/A   Unknown
9:55 PM 20.7 °F 9.5 °F 13.8 °F 75% 30.33 in 10.0 mi NE 10.4 mph 16.1 mph N/A   Unknown
10:15 PM 20.7 °F 8.8 °F 13.8 °F 75% 30.32 in 10.0 mi NE 11.5 mph 16.1 mph N/A   Unknown
10:35 PM 20.7 °F 8.8 °F 14.0 °F 75% 30.32 in 10.0 mi NNE 11.5 mph - N/A   Unknown
10:55 PM 20.7 °F 9.5 °F 14.2 °F 76% 30.32 in 10.0 mi NE 10.4 mph - N/A   Unknown
11:15 PM 20.1 °F 9.5 °F 14.0 °F 77% 30.32 in 10.0 mi NE 9.2 mph - N/A   Unknown
11:35 PM 19.2 °F 6.4 °F 13.3 °F 78% 30.33 in 10.0 mi NE 12.7 mph - N/A   Unknown
11:55 PM 19.0 °F 6.1 °F 13.1 °F 78% 30.32 in 10.0 mi NE 12.7 mph - N/A   Unknown